sat.trackr.live / text

‹ back to catalog

STARLINK-6075

NORAD 56102 · 2023-046K

PAYLOAD ACTIVE UNKNOWN

§ Identity

Operator
Country
US
Launch date
2023-03-29
Launch site
AFETR
Launch vehicle
Mass (kg)
RCS (m²)

Purposes: comms

External: N2YO · Heavens-Above · Gunter

§ Orbital elements

Epoch: 2026-09-20T22:33:13.732128Z

Period
94.27 min
Inclination
43.0022°
Eccentricity
0.0001423
Mean motion
15.27578152 rev/d
Perigee alt
482.1 km
Apogee alt
484.0 km
Semi-major
6,861.2 km
B*
3.2089e-5
RAAN
138.7805°
Arg perigee
243.8191°
Mean anomaly
116.2515°
Rev number
19,189

§ Raw data

STARLINK-60751 56102U 23046K   26263.93974227  .00000621  00000+0  32089-4 0  99952 56102  43.0022 138.7805 0001423 243.8191 116.2515 15.27578152191899

JSON: /api/v1/satellites/56102 · /tle

For live sub-satellite position, see the globe view (requires WebGL).

§ Visibility from observer

Set your observer location to see the next 7 days of passes ≥ 10°. The values pass through the URL so the page stays shareable.

No JS? Fill the form by hand. The geolocation button needs JavaScript.